Simultaneous Nadir Overpasses (SNOs) Predictions

Prediction of SNOs between METOP-C and LANDSAT-8 Satellite Orbit:

Table of predicted SNOs for the next 14.0 days since TLE Epoch: 5/4/2019
Index Date (METOP-C) Time (METOP-C) Lat,Lon (METOP-C) SZA (METOP-C ) Date (LANDSAT-8) Time (LANDSAT-8) Lat,Lon (LANDSAT-8) SZA (LANDSAT-8 ) Distance(km) Time Diff (sec)
1 05/04/2019 10:59:50 81.10, 54.33 67.30 05/04/2019 11:01:01 81.10, 54.17 67.31 2.77 71
2 05/04/2019 11:50:30 -81.11,-138.00 112.67 05/04/2019 11:50:27 -81.12,-137.85 112.65 2.76 3
3 05/07/2019 06:34:13 81.09, 120.59 66.49 05/07/2019 06:35:18 81.09, 120.51 66.51 1.43 65
4 05/07/2019 07:24:52 -81.12, -71.29 113.42 05/07/2019 07:24:44 -81.12, -71.48 113.45 3.21 8
5 05/10/2019 02:08:36 81.10,-172.77 65.77 05/10/2019 02:09:36 81.10,-172.91 65.78 2.49 60
6 05/10/2019 02:59:17 -81.11, -5.34 114.23 05/10/2019 02:59:03 -81.10, -5.23 114.23 1.76 14
7 05/12/2019 21:43:00 81.10,-106.51 65.04 05/12/2019 21:43:55 81.10,-106.47 65.07 0.95 55
8 05/12/2019 22:33:40 -81.12, 61.37 114.91 05/12/2019 22:33:22 -81.11, 61.24 114.94 2.39 18
9 05/15/2019 17:17:23 81.09, -40.24 64.34 05/15/2019 17:18:14 81.10, -40.15 64.37 1.66 51




NCC Satellite Simultaneous Nadir Overpasses (SNOs) Prediction Service
